Flag for India Weather past 2 weeks in Nadiad, Gujarat, India

Now
81 °F

Haze.


Feels Like: 84 °F
Forecast: 82 / 107 °F
Wind: 6 mph from West

Location: Ahmadabad Airport


UV Index: 10 (Very high)

Visibility: 2 mi


Pressure: 29.83 "Hg

Humidity: 70%

Dew point: 70 °F

Location of NadiadLocation

Historic Weather in Nadiad

°F

Nadiad temperature yesterday

Maximum temperature yesterday: 102 °F (at 4:40 PM)
Minimum temperature yesterday: 79 °F (at 6:40 AM)
Average temperature yesterday: 90 °F

Past Weeks' High & Low Weather Summary

 TemperatureHumidityPressure
High108 °F (Apr 5, 4:40 PM)79% (Apr 18, 6:40 AM)29.92 "Hg (Apr 18, 6:40 AM)
Low70 °F (Apr 4, 6:40 AM)9% (Apr 9, 4:40 PM)29.65 "Hg (Apr 16, 4:40 PM)
Average89 °F35%29.80 "Hg
* Reported Apr 4 5:40 AM — Apr 19 5:40 AM, Nadiad, Weather by CustomWeather, © 2014

Note: Actual official high and low records may vary slightly from our data, if they occured in-between our weather recording intervals... More about our weather records

Advertising

Historic Weather Conditions — Data for Previous 24 hours

 ConditionsComfort  
Time TempWeatherWind HumidityBarometerVisibility
5:40 AM
Apr 19
79 °FHaze.9 mph79%29.80 "Hg2 mi
4:40 AM81 °FHaze.7 mph79%29.80 "Hg2 mi
3:40 AM82 °FHaze.6 mph74%29.80 "Hg2 mi
2:40 AM82 °FHaze.7 mph74%29.83 "Hg2 mi
1:40 AM82 °FHaze.6 mph74%29.83 "Hg2 mi
12:40 AM84 °FHaze.6 mph70%29.83 "Hg2 mi
11:40 PM
Apr 18
84 °FHaze.6 mph66%29.86 "Hg2 mi
10:40 PM86 °FHaze.12 mph62%29.83 "Hg2 mi
9:40 PM86 °FClear.12 mph62%29.83 "Hg2 mi
8:40 PM91 °FClear.9 mph46%29.80 "Hg2 mi
7:40 PM97 °FClear.2 mph25%29.74 "Hg2 mi
6:40 PM100 °FClear.5 mph21%29.74 "Hg3 mi
4:40 PM102 °FClear.7 mph24%29.74 "Hg4 mi
3:40 PM100 °FClear.7 mph29%29.74 "Hg4 mi
2:40 PM99 °FClear.5 mph31%29.77 "Hg4 mi
1:40 PM97 °FClear.7 mph34%29.80 "Hg3 mi
12:40 PM95 °FClear.7 mph41%29.83 "Hg3 mi
11:40 AM91 °FHaze.7 mph49%29.86 "Hg3 mi
10:40 AM88 °FHaze.7 mph59%29.86 "Hg3 mi
9:40 AM86 °FHaze.7 mph62%29.89 "Hg3 mi
Weather by CustomWeather, © 2014

See weather overview